Weather History for Nacogdoches, TX

Change the Weather History Date:

Tuesday, August 20, 2013

  Actual Average Record
Temperature  
Mean Temperature 81 °F -  
Max Temperature 96 °F 90 °F 105 °F (2011)
Min Temperature 66 °F 69 °F 66 °F (1996)
Cooling Degree Days 16    
Growing Degree Days 31 (Base 50)    
Moisture  
Dew Point 62 °F    
Average Humidity 55    
Maximum Humidity 94    
Minimum Humidity 26    
Precipitation  
Precipitation 0.00 in - - ()
Sea Level Pressure  
Sea Level Pressure 30.02 in    
Wind  
Wind Speed 4 mph (ESE)    
Max Wind Speed 10 mph    
Max Gust Speed 16 mph    
Visibility 10 miles    
Events      
Averages and records for this station are not official NWS values.
T = Trace of Precipitation, MM = Missing Value Source: NWS Daily Summary

Daily Weather History Graph

Daily Weather History Graph

Search for Another Location

Airport:

Trip Planner

Search our weather history database for the weather conditions in past years. The results will help you decide how hot, cold, wet, or windy it might be!

Date:

Astronomy

Aug. 20, 2013 Rise Set
Actual Time 6:47 AM CDT 7:56 PM CDT
Civil Twilight 6:21 AM CDT 8:21 PM CDT
Nautical Twilight 5:51 AM CDT 8:51 PM CDT
Astronomical Twilight 5:20 AM CDT 9:22 PM CDT
Moon 7:32 PM CDT (8/20) 6:16 AM CDT (8/20)
Length of Visible Light 13h 59m
Length of Day
13h 09m
Full, 100% of the Moon is Illuminated
Aug 20
Full
Aug 20
Full
Aug 28
Last Quarter
Sep 5
New
Sep 12
First Quarter

Hourly Weather History & Observations

Time (CDT) Temp. Heat Index Dew Point Humidity Pressure Visibility Wind Dir Wind Speed Gust Speed Precip Events Conditions
12:15 AM 77.0 °F - 60.8 °F 57% 30.01 in 10.0 mi SE 5.8 mph - N/A   Clear
12:35 AM 77.0 °F - 60.8 °F 57% 30.01 in 10.0 mi ESE 5.8 mph - N/A   Clear
12:55 AM 75.2 °F - 60.8 °F 61% 30.01 in 10.0 mi ESE 4.6 mph - N/A   Clear
1:15 AM 73.4 °F - 60.8 °F 65% 30.01 in 10.0 mi ESE 4.6 mph - N/A   Clear
1:35 AM 75.2 °F - 62.6 °F 65% 30.01 in 10.0 mi SE 4.6 mph - N/A   Clear
1:55 AM 73.4 °F - 62.6 °F 69% 30.01 in 10.0 mi SE 4.6 mph - N/A   Clear
2:15 AM 73.4 °F - 62.6 °F 69% 30.02 in 10.0 mi SE 4.6 mph - N/A   Partly Cloudy
2:35 AM 73.4 °F - 62.6 °F 69% 30.02 in 10.0 mi Calm Calm - N/A   Mostly Cloudy
2:55 AM 71.6 °F - 62.6 °F 73% 30.02 in 10.0 mi NNW 3.5 mph - N/A   Overcast
3:15 AM 71.6 °F - 62.6 °F 73% 30.02 in 10.0 mi Calm Calm - N/A   Mostly Cloudy
3:35 AM 71.6 °F - 62.6 °F 73% 30.02 in 10.0 mi Calm Calm - N/A   Scattered Clouds
3:55 AM 71.6 °F - 64.4 °F 78% 30.02 in 10.0 mi SE 3.5 mph - N/A   Scattered Clouds
4:15 AM 71.6 °F - 64.4 °F 78% 30.02 in 10.0 mi Calm Calm - N/A   Mostly Cloudy
4:35 AM 71.6 °F - 64.4 °F 78% 30.02 in 10.0 mi Calm Calm - N/A   Overcast
4:55 AM 71.6 °F - 64.4 °F 78% 30.02 in 10.0 mi Calm Calm - N/A   Mostly Cloudy
5:15 AM 69.8 °F - 64.4 °F 83% 30.02 in 10.0 mi Calm Calm - N/A   Partly Cloudy
5:35 AM 69.8 °F - 64.4 °F 83% 30.02 in 10.0 mi Calm Calm - N/A   Clear
5:55 AM 69.8 °F - 64.4 °F 83% 30.02 in 10.0 mi Calm Calm - N/A   Clear
6:15 AM 68.0 °F - 62.6 °F 83% 30.02 in 10.0 mi Calm Calm - N/A   Clear
6:35 AM 66.2 °F - 62.6 °F 88% 30.03 in 10.0 mi Calm Calm - N/A   Clear
6:55 AM 66.2 °F - 62.6 °F 88% 30.03 in 10.0 mi Calm Calm - N/A   Clear
7:15 AM 66.2 °F - 64.4 °F 94% 30.04 in 10.0 mi Calm Calm - N/A   Clear
7:35 AM 69.8 °F - 64.4 °F 83% 30.04 in 10.0 mi Calm Calm - N/A   Clear
7:55 AM 69.8 °F - 66.2 °F 88% 30.05 in 10.0 mi Calm Calm - N/A   Clear
8:15 AM 73.4 °F - 66.2 °F 78% 30.05 in 10.0 mi Calm Calm - N/A   Clear
8:35 AM 78.8 °F - 68.0 °F 69% 30.06 in 10.0 mi Calm Calm - N/A   Clear
8:55 AM 78.8 °F - 69.8 °F 74% 30.06 in 10.0 mi Calm Calm - N/A   Clear
9:15 AM 80.6 °F 83.9 °F 69.8 °F 70% 30.06 in 10.0 mi Calm Calm - N/A   Clear
9:35 AM 84.2 °F 88.4 °F 69.8 °F 62% 30.06 in 10.0 mi Calm Calm - N/A   Clear
9:55 AM 84.2 °F 88.4 °F 69.8 °F 62% 30.06 in 10.0 mi SE 3.5 mph - N/A   Clear
10:15 AM 86.0 °F 88.2 °F 66.2 °F 51% 30.06 in 10.0 mi East 4.6 mph - N/A   Clear
10:35 AM 86.0 °F 87.3 °F 64.4 °F 48% 30.07 in 10.0 mi East 4.6 mph - N/A   Clear
10:55 AM 87.8 °F 89.4 °F 64.4 °F 46% 30.07 in 10.0 mi East 6.9 mph - N/A   Clear
11:15 AM 89.6 °F 90.1 °F 62.6 °F 40% 30.06 in 10.0 mi ESE 6.9 mph - N/A   Clear
11:35 AM 91.4 °F 93.2 °F 64.4 °F 41% 30.06 in 10.0 mi East 5.8 mph - N/A   Clear
11:55 AM 89.6 °F 90.1 °F 62.6 °F 40% 30.06 in 10.0 mi ENE 4.6 mph - N/A   Clear
12:15 PM 91.4 °F 91.4 °F 60.8 °F 36% 30.05 in 10.0 mi NNE 6.9 mph - N/A   Scattered Clouds
12:35 PM 89.6 °F 89.5 °F 60.8 °F 38% 30.05 in 10.0 mi Calm Calm - N/A   Scattered Clouds
12:55 PM 93.2 °F 92.6 °F 59.0 °F 32% 30.04 in 10.0 mi East 8.1 mph - N/A   Partly Cloudy
1:15 PM 91.4 °F 89.9 °F 57.2 °F 31% 30.03 in 10.0 mi SE 9.2 mph 16.1 mph N/A   Partly Cloudy
1:35 PM 93.2 °F 92.6 °F 59.0 °F 32% 30.03 in 10.0 mi ENE 10.4 mph - N/A   Partly Cloudy
1:55 PM 95.0 °F 93.7 °F 57.2 °F 28% 30.02 in 10.0 mi East 9.2 mph - N/A   Clear
2:15 PM 93.2 °F 91.9 °F 57.2 °F 30% 30.02 in 10.0 mi East 8.1 mph - N/A   Partly Cloudy
2:35 PM 95.0 °F 93.0 °F 55.4 °F 26% 30.01 in 10.0 mi East 3.5 mph - N/A   Partly Cloudy
2:55 PM 91.4 °F 89.4 °F 55.4 °F 29% 30.01 in 10.0 mi SE 3.5 mph - N/A   Clear
3:15 PM 93.2 °F 91.9 °F 57.2 °F 30% 30.00 in 10.0 mi ENE 4.6 mph - N/A   Clear
3:35 PM 96.8 °F 95.8 °F 57.2 °F 27% 29.99 in 10.0 mi SSE 3.5 mph - N/A   Scattered Clouds
3:55 PM 96.8 °F 95.8 °F 57.2 °F 27% 29.99 in 10.0 mi ESE 8.1 mph - N/A   Mostly Cloudy
4:15 PM 95.0 °F 93.7 °F 57.2 °F 28% 29.98 in 10.0 mi East 10.4 mph - N/A   Scattered Clouds
4:35 PM 96.8 °F 95.8 °F 57.2 °F 27% 29.98 in 10.0 mi ENE 3.5 mph - N/A   Mostly Cloudy
4:55 PM 93.2 °F 91.3 °F 55.4 °F 28% 29.98 in 10.0 mi SSE 5.8 mph - N/A   Mostly Cloudy
5:15 PM 93.2 °F 91.9 °F 57.2 °F 30% 29.97 in 10.0 mi SSE 4.6 mph - N/A   Scattered Clouds
5:35 PM 93.2 °F 91.9 °F 57.2 °F 30% 29.97 in 10.0 mi East 8.1 mph - N/A   Partly Cloudy
5:55 PM 93.2 °F 91.9 °F 57.2 °F 30% 29.97 in 10.0 mi ENE 3.5 mph - N/A   Clear
6:15 PM 93.2 °F 91.9 °F 57.2 °F 30% 29.96 in 10.0 mi East 5.8 mph - N/A   Clear
6:35 PM 93.2 °F 91.3 °F 55.4 °F 28% 29.96 in 10.0 mi SE 6.9 mph - N/A   Clear
6:55 PM 91.4 °F 89.4 °F 55.4 °F 29% 29.96 in 10.0 mi ESE 4.6 mph - N/A   Clear
7:15 PM 91.4 °F 89.4 °F 55.4 °F 29% 29.96 in 10.0 mi SE 5.8 mph - N/A   Clear
7:35 PM 89.6 °F 88.1 °F 57.2 °F 33% 29.96 in 10.0 mi ESE 5.8 mph - N/A   Clear
7:55 PM 87.8 °F 86.5 °F 57.2 °F 35% 29.97 in 10.0 mi ESE 3.5 mph - N/A   Clear
8:15 PM 86.0 °F 85.4 °F 59.0 °F 40% 29.98 in 10.0 mi SE 9.2 mph - N/A   Clear
8:35 PM 84.2 °F 85.6 °F 64.4 °F 51% 29.98 in 10.0 mi SSE 6.9 mph - N/A   Clear
8:55 PM 84.2 °F 85.6 °F 64.4 °F 51% 30.00 in 10.0 mi SSE 5.8 mph - N/A   Clear
9:15 PM 82.4 °F 84.6 °F 66.2 °F 58% 30.00 in 10.0 mi SSE 5.8 mph - N/A   Clear
9:35 PM 82.4 °F 84.6 °F 66.2 °F 58% 30.01 in 10.0 mi SE 5.8 mph - N/A   Clear
9:55 PM 80.6 °F 82.7 °F 66.2 °F 61% 30.02 in 10.0 mi SSE 5.8 mph - N/A   Clear
10:15 PM 80.6 °F 82.7 °F 66.2 °F 61% 30.03 in 10.0 mi SSE 5.8 mph - N/A   Clear
10:35 PM 80.6 °F 82.7 °F 66.2 °F 61% 30.04 in 10.0 mi SE 5.8 mph - N/A   Clear
10:55 PM 78.8 °F - 68.0 °F 69% 30.04 in 10.0 mi SSE 5.8 mph - N/A   Clear
11:35 PM 77.0 °F - 68.0 °F 74% 30.05 in 10.0 mi SSE 4.6 mph - N/A   Clear
11:55 PM 77.0 °F - 68.0 °F 74% 30.05 in 10.0 mi South 4.6 mph - N/A   Clear